Probability
0 0 0 0 0 0 0 0 0 0 0 0 0 0 0 0 0 0 0 0 0 0 0 0 0 0 0 0 0 0 0 0 0 0 0 0 0 0
0 0 0 0 0 0 0 0 0 0 0 0 0 0 0 0 0 0 0 0 0 0 0 0 0 0 0 0 0 0 0 0 0 0 0 0 0 0
0 0 0 0 0 0 0 0 0 0 0 0 0 0 0 0 0 0 0 0 0 0 0 0 0 0 0 0 0 0 0 0 0 0 0 0 0 0
0 0 0 0 0 0 0 0 0 0 0 0 0 0 0 0 0 0 0 0 0 0 0 0 0 0 0 0 0 0 0 0 0 0 0 0 0 0
0 0 0 0 0 0 0 0 0 0 0 0 0 0 0 0 0 0 0 0 0 0 0 0 0 0 0 0 0 0 0 0 0 0 0 0 0 0
1 1 1 0 0 0 0 0 0 0 0 0 0 0 0 0 0 0 0 0 0 0 0 0 0 0 0 0 0 0 0 0 0 0 0 0 0 0
2 2 2 1 0 0 0 0 0 0 0 0 0 0 0 0 0 0 0 0 0 0 0 0 0 0 0 0 0 0 0 0 0 0 0 0 0 0
3 3 2 1 0 0 0 0 0 0 0 0 0 0 0 0 0 0 0 0 0 0 0 0 0 0 0 0 0 0 0 0 0 0 0 0 0 0
1 2 2 1 0 0 0 0 0 0 0 0 0 0 0 0 0 0 0 0 0 0 0 0 0 0 0 0 0 0 0 0 0 0 0 0 0 0
0 1 1 0 0 0 0 0 0 0 0 0 0 0 0 0 0 0 0 0 0 0 0 0 0 0 0 0 0 0 0 0 0 0 0 0 0 0
0 0 0 0 0 0 0 0 0 0 0 0 0 0 0 0 0 0 0 0 0 0 0 0 0 0 0 0 0 0 0 0 0 0 0 0 0 0
0 0 0 0 0 0 0 0 0 0 0 0 0 0 0 0 0 0 0 0 0 0 0 0 0 0 0 0 0 0 0 0 0 0 0 0 0 0
0 0 0 0 0 0 0 0 0 0 0 0 0 0 0 0 0 0 0 0 0 0 0 0 0 0 0 0 0 0 0 0 0 0 0 0 0 0
0 0 0 0 0 0 0 0 0 0 0 0 0 0 0 0 0 0 0 0 0 0 0 0 0 0 0 0 0 0 0 0 0 0 0 0 0 0
0 0 0 0 0 0 0 0 0 0 0 0 0 0 0 0 0 0 0 0 0 0 0 0 0 0 0 0 0 0 0 0 0 0 0 0 0 0
0 0 0 0 0 0 0 0 0 0 0 0 0 0 0 0 0 0 0 0 0 0 0 0 0 0 0 0 0 0 0 0 0 0 0 0 0 0
0 0 0 0 0 0 0 0 0 0 0 0 0 0 0 0 0 0 0 0 0 0 0 0 0 0 0 0 0 0 0 0 0 0 0 0 0 0
0 0 0 0 0 0 0 0 0 0 0 0 0 0 0 0 0 0 0 0 0 0 0 0 0 0 0 0 0 0 0 0 0 0 0 0 0 0
0 0 0 0 0 0 0 0 0 0 0 0 0 0 0 0 0 0 0 0 0 0 0 0 0 0 0 0 0 0 0 0 0 0 0 0 0 0
0 0 0 0 0 0 0 0 0 0 0 0 0 0 0 0 0 0 0 0 0 0 0 0 0 0 0 0 0 0 0 0 0 0 0 0 0 0
0 0 0 0 0 0 0 0 0 0 0 0 0 0 0 0 0 0 0 0 0 0 0 0 0 0 0 0 0 0 0 0 0 0 0 0 0 0
0 0 0 0 0 0 0 0 0 0 0 0 0 0 0 0 0 0 0 0 0 0 0 0 0 0 0 0 0 0 0 0 0 0 0 0 0 0
0 0 0 0 0 0 0 0 0 0 0 0 0 0 0 0 0 0 0 0 0 0 0 0 0 0 0 0 0 0 0 0 0 0 0 0 0 0
Wind_Speed
4 4 2 2 2 2 2 3 5 2 1 1 1 1 1 1 2 2 3 5 6 6 5 4 3 3 3 2 2 2 2 3 4 5 5 6 6 7
3 3 3 2 1 1 2 2 3 4 2 1 0 1 1 2 3 2 3 5 5 5 4 3 3 3 3 2 2 2 2 3 3 4 5 5 6 7
4 4 4 3 2 2 2 2 2 3 3 1 1 1 2 3 2 2 2 2 2 3 3 3 2 2 2 2 2 2 2 3 3 4 5 5 6 7
4 4 3 3 3 2 2 2 2 2 4 3 1 2 2 2 3 3 2 2 2 3 2 2 2 2 3 2 3 2 2 2 2 3 4 5 5 6
5 5 4 4 3 2 2 2 2 2 3 4 2 1 2 2 3 3 3 2 3 4 4 3 3 3 3 4 3 2 1 1 2 2 3 3 5 6
3 4 4 4 4 3 2 2 3 3 4 4 3 2 2 2 3 2 2 3 2 3 4 4 4 4 4 3 3 2 1 1 2 3 3 4 5 6
4 4 4 6 6 4 3 3 4 4 4 4 3 2 2 3 2 1 2 1 2 3 2 3 3 3 3 2 2 2 1 2 3 4 5 5 6 7
5 5 5 7 9 10 10 8 6 6 5 4 3 3 2 1 1 2 1 2 2 3 2 2 3 2 2 2 3 3 3 4 4 5 6 6 7 8
6 5 5 6 7 7 11 13 12 12 9 6 6 4 3 1 2 3 3 3 1 3 2 2 3 2 2 3 5 5 5 5 6 6 7 7 8 9
6 6 7 6 6 8 9 9 9 8 8 7 7 5 4 2 3 3 2 3 2 3 3 2 3 2 3 2 5 7 7 7 8 8 8 9 9 9
7 7 7 7 9 11 11 10 10 8 11 13 12 10 10 9 6 4 4 4 3 3 3 2 2 3 3 3 5 8 9 9 9 9 9 9 10 9
7 7 10 10 10 10 9 9 9 6 6 7 8 8 7 8 9 5 3 3 2 1 3 2 2 3 3 3 3 4 5 7 9 9 9 10 10 5
6 5 6 12 12 12 10 7 8 6 6 6 5 4 4 4 4 4 3 3 3 0 2 1 1 1 1 3 4 4 3 4 4 5 7 10 11 7
7 6 7 13 13 13 10 10 11 8 5 5 5 4 3 3 3 3 3 3 2 1 1 1 1 0 1 2 4 4 4 4 3 3 4 8 9 10
7 11 12 13 12 10 12 12 9 6 5 5 4 2 1 1 2 3 4 4 4 3 3 1 1 0 0 1 3 3 4 4 3 3 4 5 4 4
8 10 12 12 9 9 8 6 5 4 4 4 3 2 2 3 3 2 2 2 3 4 4 3 2 0 1 2 2 3 3 4 4 5 4 4 5 5
8 6 5 5 5 4 4 4 4 4 4 3 3 3 3 3 3 2 2 2 2 2 4 4 4 3 2 3 2 4 4 4 5 4 4 5 5 6
8 6 5 4 4 4 4 3 3 3 3 3 3 3 2 2 2 2 2 2 2 2 2 3 3 4 5 4 4 3 3 4 5 5 4 3 5 6
7 5 5 4 3 3 3 3 2 2 3 3 3 2 2 2 2 2 2 2 2 2 3 3 2 2 3 5 7 4 3 4 4 4 4 4 5 7
4 5 4 3 3 3 3 3 3 3 3 3 3 2 2 2 2 2 2 2 2 2 3 3 3 2 2 3 4 6 8 4 4 4 4 4 5 8
4 4 3 3 3 4 4 3 3 3 3 2 2 2 2 2 2 2 2 3 2 2 3 4 5 7 3 1 3 5 6 8 7 5 4 4 5 4
4 4 3 4 4 4 3 3 3 3 3 3 2 2 2 2 1 2 2 2 2 2 3 4 5 4 2 3 4 5 6 7 9 11 9 6 3 4
4 4 4 4 4 3 4 4 4 3 2 2 2 1 2 1 1 1 2 2 2 3 3 4 4 3 3 3 4 4 6 7 5 5 6 10 12 12
Wind_Direction
185 181 181 199 187 186 171 158 152 162 235 284 324 320 164 141 157 149 140 149 156 162 163 161 155 144 130 110 89 71 45 31 22 14 9 5 357 348
181 178 192 200 177 168 161 152 149 152 177 246 251 340 65 110 112 129 141 142 156 165 168 167 161 146 138 128 112 92 55 35 27 21 19 14 6 358
186 180 191 182 159 147 133 129 130 133 147 163 40 27 62 81 75 83 90 98 122 136 146 144 144 149 142 126 106 92 66 52 42 33 25 18 12 4
186 174 184 177 160 153 138 128 133 135 142 148 73 42 48 74 83 83 69 75 88 87 104 101 98 114 124 125 120 111 85 61 42 27 16 10 5 0
177 170 172 155 157 145 134 141 140 123 122 131 124 60 46 55 67 62 56 37 59 65 62 62 67 95 112 120 108 97 85 39 10 354 348 349 348 345
158 153 154 149 154 146 135 144 129 111 108 113 108 75 51 35 70 65 42 24 34 39 39 48 57 71 78 97 90 79 67 12 342 334 328 324 322 323
118 116 121 118 117 118 121 126 123 117 111 108 102 81 54 50 50 41 69 37 32 30 28 28 38 35 28 33 45 39 6 327 324 324 317 312 311 311
116 104 97 94 95 93 94 95 110 122 122 114 106 104 92 65 42 63 72 65 23 356 40 27 38 24 1 20 14 4 339 326 324 321 318 316 312 310
122 117 106 94 91 92 83 75 72 80 96 117 113 114 113 110 91 69 61 71 52 327 38 27 7 2 343 10 2 351 338 333 332 329 327 325 324 320
93 99 102 98 100 105 96 83 72 66 77 84 96 92 92 87 89 103 103 88 50 5 33 49 343 336 339 341 346 351 341 333 328 324 323 323 321 318
85 88 100 100 102 107 104 99 88 77 77 83 84 81 77 71 71 72 60 67 43 353 2 55 336 331 333 328 335 346 343 335 329 325 324 324 321 318
84 78 84 97 102 106 105 106 102 94 87 79 68 59 56 51 54 68 90 90 84 356 333 36 347 358 343 321 323 332 336 332 334 332 330 328 327 324
100 87 84 95 96 94 94 98 105 103 89 85 78 66 55 46 40 45 64 103 106 57 297 76 18 5 337 307 313 315 323 321 325 322 325 324 322 319
108 102 97 96 93 90 88 91 91 88 85 79 75 63 52 39 27 32 42 55 98 150 293 98 114 264 313 316 306 310 315 314 314 306 310 318 318 319
103 105 101 95 88 83 85 86 85 84 87 85 78 62 41 34 36 33 28 30 25 20 24 45 97 274 180 252 283 294 306 305 306 309 308 307 300 307
100 98 92 85 82 83 81 76 78 86 94 96 93 61 35 37 36 37 41 24 24 352 344 351 355 18 299 280 269 288 291 292 301 306 304 299 297 294
113 97 88 86 81 73 69 66 67 72 73 70 72 60 45 39 25 25 46 45 38 355 336 334 332 316 259 247 287 291 294 295 292 301 310 305 294 293
108 106 106 105 104 100 96 80 68 75 77 75 67 63 60 51 32 21 33 41 22 342 324 318 337 350 349 319 253 263 289 286 293 299 295 297 295 296
102 107 109 112 112 111 106 102 92 81 81 79 72 62 60 54 49 34 24 21 4 337 318 316 339 10 351 323 302 286 276 292 300 301 292 282 281 290
101 112 116 117 113 110 108 103 93 81 74 74 68 60 59 61 48 31 20 7 346 337 332 327 325 314 277 270 279 294 300 291 293 295 292 293 283 288
110 111 115 115 113 114 113 105 98 92 86 79 67 56 53 58 42 20 8 359 1 347 333 311 293 306 289 316 316 305 298 301 297 288 288 298 305 309
119 121 120 120 119 117 113 108 98 92 86 78 65 48 42 54 41 13 0 349 334 318 307 298 310 330 349 335 310 300 303 311 317 320 311 291 290 298
137 133 128 125 123 119 116 115 112 105 100 91 73 45 35 28 6 358 342 337 330 323 320 317 323 330 318 305 302 299 307 311 312 321 314 313 314 306